TimeCST,TemperatureF,Dew PointF,Humidity,Sea Level PressureIn,VisibilityMPH,Wind Direction,Wind SpeedMPH,Gust SpeedMPH,PrecipitationIn,Events,Conditions,WindDirDegrees,DateUTC
12:15 AM,8.8,5.7,87,30.12,7.0,NNW,5.8,-,N/A,Snow,Light Snow,340,2012-12-23 06:15:00
12:35 AM,8.8,5.9,88,30.12,10.0,NNW,5.8,-,N/A,Snow,Light Snow,340,2012-12-23 06:35:00
12:55 AM,8.6,5.7,88,30.12,10.0,North,8.1,-,N/A,Snow,Light Snow,360,2012-12-23 06:55:00
1:15 AM,8.6,5.7,88,30.12,5.0,NNW,6.9,-,N/A,Snow,Light Snow,340,2012-12-23 07:15:00
1:35 AM,8.4,5.5,88,30.12,7.0,North,8.1,-,N/A,Snow,Light Snow,350,2012-12-23 07:35:00
1:55 AM,8.4,5.4,87,30.12,4.0,NNW,6.9,-,N/A,Snow,Light Snow,330,2012-12-23 07:55:00
2:15 AM,8.2,5.0,87,30.12,7.0,NNW,6.9,-,N/A,Snow,Light Snow,340,2012-12-23 08:15:00
2:35 AM,7.9,4.8,87,30.13,5.0,NW,4.6,-,N/A,Snow,Light Snow,320,2012-12-23 08:35:00
2:55 AM,7.7,4.6,87,30.13,7.0,NNW,5.8,-,N/A,Snow,Light Snow,330,2012-12-23 08:55:00
3:15 AM,7.3,4.3,87,30.14,10.0,North,9.2,-,N/A,,Overcast,360,2012-12-23 09:15:00
3:35 AM,7.2,4.1,87,30.14,5.0,NNW,3.5,-,N/A,Snow,Light Snow,340,2012-12-23 09:35:00
3:55 AM,7.0,3.9,87,30.14,10.0,North,6.9,-,N/A,Snow,Light Snow,350,2012-12-23 09:55:00
4:15 AM,6.8,3.7,87,30.14,4.0,North,3.5,-,N/A,Snow,Light Snow,350,2012-12-23 10:15:00
4:35 AM,6.6,3.4,87,30.13,7.0,North,4.6,-,N/A,Snow,Light Snow,360,2012-12-23 10:35:00
4:55 AM,5.4,2.3,87,30.13,5.0,NNE,4.6,-,N/A,Snow,Light Snow,30,2012-12-23 10:55:00
5:15 AM,3.6,0.7,88,30.12,10.0,NNE,3.5,-,N/A,,Scattered Clouds,30,2012-12-23 11:15:00
5:35 AM,2.8,-0.0,88,30.12,10.0,Calm,Calm,-,N/A,Snow,Light Snow,0,2012-12-23 11:35:00
5:55 AM,3.6,0.7,88,30.13,5.0,Calm,Calm,-,N/A,Snow,Light Snow,0,2012-12-23 11:55:00
6:15 AM,3.4,0.5,88,30.13,4.0,Calm,Calm,-,N/A,Snow,Light Snow,0,2012-12-23 12:15:00
6:35 AM,3.0,-0.0,87,30.13,4.0,Calm,Calm,-,N/A,Snow,Light Snow,0,2012-12-23 12:35:00
6:55 AM,3.0,-0.2,86,30.13,3.0,NNW,3.5,-,N/A,Snow,Light Snow,330,2012-12-23 12:55:00
7:15 AM,3.2,0.1,87,30.14,2.5,NNW,4.6,-,N/A,Snow,Light Snow,340,2012-12-23 13:15:00
7:35 AM,2.7,-0.9,85,30.13,4.0,NNW,3.5,-,N/A,Snow,Light Snow,340,2012-12-23 13:35:00
7:55 AM,1.0,-2.2,86,30.13,10.0,North,3.5,-,N/A,,Scattered Clouds,350,2012-12-23 13:55:00
8:15 AM,-0.0,-2.9,88,30.13,7.0,North,3.5,-,N/A,,Clear,350,2012-12-23 14:15:00
8:35 AM,-0.4,-3.5,87,30.13,10.0,Calm,Calm,-,N/A,,Clear,0,2012-12-23 14:35:00
8:55 AM,-0.8,-3.8,87,30.13,1.5,Calm,Calm,-,N/A,Snow,Light Snow,0,2012-12-23 14:55:00
9:15 AM,-0.6,-3.8,86,30.14,2.0,Calm,Calm,-,N/A,,Clear,0,2012-12-23 15:15:00
9:35 AM,0.3,-2.9,86,30.13,10.0,Calm,Calm,-,N/A,,Clear,0,2012-12-23 15:35:00
9:55 AM,1.6,-1.8,86,30.14,1.5,Calm,Calm,-,N/A,,Mist,0,2012-12-23 15:55:00
10:15 AM,2.1,-1.3,86,30.14,1.8,Calm,Calm,-,N/A,Snow,Light Snow,0,2012-12-23 16:15:00
10:35 AM,2.8,-0.6,86,30.13,3.0,Calm,Calm,-,N/A,Snow,Light Snow,0,2012-12-23 16:35:00
10:55 AM,3.6,0.1,86,30.14,10.0,Calm,Calm,-,N/A,,Clear,0,2012-12-23 16:55:00
11:15 AM,5.2,1.6,85,30.13,10.0,Calm,Calm,-,N/A,,Clear,0,2012-12-23 17:15:00
11:35 AM,5.7,1.6,83,30.12,10.0,Calm,Calm,-,N/A,,Clear,0,2012-12-23 17:35:00
11:55 AM,6.1,2.3,84,30.12,10.0,Calm,Calm,-,N/A,,Clear,0,2012-12-23 17:55:00
12:15 PM,7.3,3.0,82,30.11,10.0,Calm,Calm,-,N/A,,Clear,0,2012-12-23 18:15:00
12:35 PM,7.9,3.2,81,30.11,10.0,Calm,Calm,-,N/A,,Clear,0,2012-12-23 18:35:00
12:55 PM,8.6,3.6,80,30.11,10.0,NE,3.5,-,N/A,,Clear,40,2012-12-23 18:55:00
1:15 PM,9.3,4.1,79,30.10,10.0,NNE,5.8,-,N/A,,Clear,20,2012-12-23 19:15:00
1:35 PM,9.5,4.1,79,30.10,10.0,Calm,Calm,-,N/A,,Clear,0,2012-12-23 19:35:00
1:55 PM,9.7,4.1,78,30.09,10.0,NE,4.6,-,N/A,,Scattered Clouds,40,2012-12-23 19:55:00
2:15 PM,10.0,4.5,78,30.09,10.0,NNE,4.6,-,N/A,,Mostly Cloudy,20,2012-12-23 20:15:00
2:35 PM,10.0,4.6,79,30.09,10.0,North,4.6,-,N/A,,Mostly Cloudy,360,2012-12-23 20:35:00
2:55 PM,10.0,4.6,79,30.10,10.0,NNW,4.6,-,N/A,,Overcast,340,2012-12-23 20:55:00
3:15 PM,10.0,4.8,79,30.10,10.0,NNW,5.8,-,N/A,,Overcast,330,2012-12-23 21:15:00
3:35 PM,9.5,4.6,81,30.10,10.0,North,4.6,-,N/A,,Overcast,360,2012-12-23 21:35:00
3:55 PM,9.5,4.8,81,30.11,10.0,North,3.5,-,N/A,,Overcast,360,2012-12-23 21:55:00
4:15 PM,9.3,4.6,81,30.11,10.0,North,3.5,-,N/A,,Overcast,350,2012-12-23 22:15:00
4:35 PM,9.1,4.5,81,30.12,10.0,NNW,3.5,-,N/A,,Overcast,340,2012-12-23 22:35:00
4:55 PM,9.0,4.1,81,30.11,10.0,Calm,Calm,-,N/A,,Overcast,0,2012-12-23 22:55:00
5:15 PM,9.0,4.1,81,30.11,10.0,North,3.5,-,N/A,,Overcast,350,2012-12-23 23:15:00
5:35 PM,8.6,4.3,83,30.11,10.0,NNW,3.5,-,N/A,,Overcast,330,2012-12-23 23:35:00
5:55 PM,8.6,4.6,84,30.11,10.0,NW,4.6,-,N/A,,Overcast,320,2012-12-23 23:55:00
6:15 PM,8.6,4.6,84,30.10,10.0,NNW,3.5,-,N/A,,Overcast,340,2012-12-24 00:15:00
6:35 PM,8.4,4.5,84,30.10,10.0,NNW,5.8,-,N/A,,Overcast,330,2012-12-24 00:35:00
6:55 PM,8.2,4.3,84,30.11,10.0,NW,5.8,-,N/A,,Overcast,320,2012-12-24 00:55:00
7:15 PM,8.1,4.1,84,30.10,10.0,NNW,4.6,-,N/A,,Overcast,340,2012-12-24 01:15:00
7:35 PM,7.7,3.9,85,30.09,10.0,North,5.8,-,N/A,,Overcast,360,2012-12-24 01:35:00
7:55 PM,7.5,3.6,84,30.08,10.0,North,5.8,-,N/A,,Overcast,360,2012-12-24 01:55:00
8:15 PM,7.3,3.2,83,30.07,10.0,North,5.8,-,N/A,,Overcast,360,2012-12-24 02:15:00
8:35 PM,7.2,3.2,84,30.07,10.0,North,5.8,-,N/A,,Overcast,360,2012-12-24 02:35:00
8:55 PM,7.2,3.4,85,30.07,10.0,North,4.6,-,N/A,,Overcast,10,2012-12-24 02:55:00
9:15 PM,7.2,3.4,85,30.06,10.0,NNE,6.9,-,N/A,,Overcast,20,2012-12-24 03:15:00
9:35 PM,6.8,3.2,85,30.06,10.0,North,4.6,-,N/A,,Overcast,360,2012-12-24 03:35:00
9:55 PM,7.0,3.2,84,30.05,10.0,North,3.5,-,N/A,,Overcast,360,2012-12-24 03:55:00
10:15 PM,7.0,3.2,84,30.05,10.0,NW,5.8,-,N/A,,Overcast,320,2012-12-24 04:15:00
10:35 PM,6.6,3.0,85,30.06,10.0,NNW,6.9,-,N/A,,Overcast,330,2012-12-24 04:35:00
10:55 PM,6.3,2.3,84,30.06,10.0,NNW,5.8,-,N/A,,Overcast,340,2012-12-24 04:55:00
11:15 PM,5.9,2.1,84,30.06,10.0,NNW,5.8,-,N/A,,Overcast,330,2012-12-24 05:15:00
11:35 PM,5.7,1.9,84,30.06,10.0,NNW,5.8,-,N/A,Snow,Light Snow,340,2012-12-24 05:35:00
11:55 PM,5.4,1.6,84,30.06,10.0,NNW,6.9,-,N/A,,Overcast,330,2012-12-24 05:55:00